TIRANA current weather conditions

sailwx.info

Last reported at 2016-Nov-17 12:06 UTC.
Time now 2017-Jan-17 07:00 UTC

Location: N 41°25' E 019°43'.
View on Google Maps.

See reports from other nearby stations

  
Tides and Currents Weather Stations Pressure Air Temp Water Temp Dewpoint Dewpoint Depression Visibility Wind Speed Wind Dir Waves Ship Positions
date/time (UTC)wind fromknots sea level pressurealtimeterstation pressurevisibilityair tempwater tempwave heightnotes
2017-Jan-17 05:20 180 5 5.4 6.0
2017-Jan-17 04:50 160 2 5.4 6.0
2017-Jan-17 04:20 180 5 5.4 6.0
2017-Jan-17 03:50 160 7 5.4 6.0
2017-Jan-17 03:20 130 6 5.4 7.0 Thunderstorm. Light rain.
2017-Jan-17 02:50 150 11 5.4 7.0 Thunderstorm.
2017-Jan-17 02:20 170 11 5.4 7.0
2017-Jan-17 01:50 150 5 5.4 6.0
2017-Jan-17 01:20 150 8 5.4 6.0 Thunderstorm.
2017-Jan-17 00:50 150 13 5.4 7.0
2017-Jan-17 00:20 160 11 5.4 6.0
2017-Jan-16 23:50 160 6 5.4 5.0 Thunderstorm. Light rain.
2017-Jan-16 23:20 150 9 5.4 6.0 Thunderstorm. Light rain.
2017-Jan-16 22:50 140 15 5.4 7.0 Thunderstorm. Light rain.
2017-Jan-16 22:20 160 12 gusting 25 5.4 8.0 Light rain.
2017-Jan-16 21:50 180 8 5.4 7.0 Drizzle.
2017-Jan-16 21:20 190 11 5.4 7.0 Light rain.
2017-Jan-16 20:50 5.4 6.0
2017-Jan-16 20:20 150 2 5.4 6.0
2017-Jan-16 19:50 210 5 5.4 7.0
2017-Jan-16 19:20 150 8 5.4 8.0
2017-Jan-16 18:50 170 8 5.4 7.0
2017-Jan-16 18:20 160 13 5.4 7.0
2017-Jan-16 17:50 140 13 5.4 8.0
2017-Jan-16 17:20 150 18 5.4 9.0
2017-Jan-16 16:50 170 7 5.4 8.0
2017-Jan-16 16:20 140 2 5.4 8.0
2017-Jan-16 15:50 160 6 5.4 7.0
2017-Jan-16 15:20 160 7 5.4 8.0
2017-Jan-16 14:50 180 8 5.4 8.0
2017-Jan-16 14:20 140 9 5.4 9.0 Thunderstorm.
2017-Jan-16 13:50 140 11 5.4 9.0
2017-Jan-16 13:20 150 14 5.4 9.0 Thunderstorm.
2017-Jan-16 12:50 160 8 5.4 9.0
2017-Jan-16 12:20 140 11 5.4 9.0
2017-Jan-16 11:50 150 12 5.410.0
2017-Jan-16 11:20 150 12 5.410.0
2017-Jan-16 10:50 150 11 5.410.0
2017-Jan-16 10:20 150 6 5.4 9.0
2017-Jan-16 09:50 150 9 5.4 9.0
2017-Jan-16 09:20 5.4 7.0
2017-Jan-16 08:50 5.4 5.0
2017-Jan-16 08:20 340 4 5.4 5.0
2017-Jan-16 07:50 360 4 5.4 4.0
2017-Jan-16 07:20 330 5 5.4 3.0
2017-Jan-16 06:50 340 6 5.4 4.0
2017-Jan-16 06:20 330 2 5.4 4.0
2017-Jan-16 05:50 210 4 5.4 5.0
2017-Jan-16 05:20 180 2 5.4 5.0
2017-Jan-16 04:50 160 8 5.4 6.0
2017-Jan-16 04:20 160 11 5.4 6.0
2017-Jan-16 03:50 140 13 5.4 7.0
2017-Jan-16 03:20 150 6 5.4 4.0
2017-Jan-16 02:50 5.4 1.0
2017-Jan-16 02:20 5.4-0.0
2017-Jan-16 01:50 5.4-0.0
2017-Jan-16 01:20 5.4-0.0
2017-Jan-16 00:50 5.4-0.0
2017-Jan-16 00:20 5.4-0.0
2017-Jan-15 23:50 5.4-0.0
2017-Jan-15 23:20 5.4-1.0
2017-Jan-15 22:50 5.4-0.0
2017-Jan-15 22:20 5.4-1.0
2017-Jan-15 21:50 5.4-0.0
2017-Jan-15 21:20 5.4-0.0
2017-Jan-15 20:50 5.4-0.0
2017-Jan-15 20:20 5.4 1.0
2017-Jan-15 19:50 5.4 1.0
2017-Jan-15 19:20 5.4 1.0
2017-Jan-15 18:50 5.4 1.0
2017-Jan-15 18:20 5.4 1.0
2017-Jan-15 17:50 5.4 3.0
2017-Jan-15 17:20 320 1 5.4 3.0
2017-Jan-15 16:50 5.4 6.0
2017-Jan-15 16:20 350 2 5.4 6.0
2017-Jan-15 15:50 310 2 5.4 7.0
2017-Jan-15 15:20 010 2 5.4 9.0
2017-Jan-15 14:50 5.410.0
2017-Jan-15 14:20 020 4 5.410.0
2017-Jan-15 13:50 060 5 5.411.0
2017-Jan-15 13:20 100 1 5.411.0
2017-Jan-15 12:50 5.412.0
2017-Jan-15 12:20 060 1 5.411.0
2017-Jan-15 11:50 320 1 5.410.0
2017-Jan-15 11:20 5.410.0
2017-Jan-15 10:50 350 2 5.4 9.0
2017-Jan-15 10:20 5.4 9.0
2017-Jan-15 09:50 5.4 8.0
2017-Jan-15 09:20 5.4 7.0
2017-Jan-15 08:50 350 2 5.4 7.0
2017-Jan-15 08:20 020 4 5.4 5.0
2017-Jan-15 07:50 3.2 4.0
2017-Jan-15 07:20 310 2 2.2 3.0 Mist.